sat.trackr.live / text

‹ back to catalog

COSMOS 2496 (RODNIK-S *)

NORAD 39761 · 2014-028A

PAYLOAD ACTIVE UNKNOWN

§ Identity

Operator
Country
CIS
Launch date
2014-05-23
Launch site
PLMSC
Launch vehicle
Mass (kg)
RCS (m²)
1.69

External: N2YO · Heavens-Above · Gunter

§ Orbital elements

Epoch: 2026-09-20T04:06:01.367424Z

Period
115.86 min
Inclination
82.4450°
Eccentricity
0.0019435
Mean motion
12.42881401 rev/d
Perigee alt
1,479.1 km
Apogee alt
1,509.7 km
Semi-major
7,872.5 km
B*
3.9497e-4
RAAN
49.2148°
Arg perigee
231.0380°
Mean anomaly
128.8968°
Rev number
55,931

§ Raw data

COSMOS 2496 (RODNIK-S *)1 39761U 14028A   26263.17084916  .00000064  00000+0  39497-3 0  99902 39761  82.4450  49.2148 0019435 231.0380 128.8968 12.42881401559314

JSON: /api/v1/satellites/39761 · /tle

For live sub-satellite position, see the globe view (requires WebGL).

§ Visibility from observer

Set your observer location to see the next 7 days of passes ≥ 10°. The values pass through the URL so the page stays shareable.

No JS? Fill the form by hand. The geolocation button needs JavaScript.

§ Radio — SatNOGS DB

ModeDescriptionDownlinkUplink
FM UHF Unknown 387.175 MHz
FM UHF Unknown 388.187 MHz
UHF Unknown 388.687 MHz

3 transmitters · refreshed weekly from db.satnogs.org